DW5678 Kavala GR current weather conditions

sailwx.info

Wind from 218 at 0 knots gusting 2

Air temperature 7.8° C
Dewpoint 6.2° C

Last reported at 2014-Dec-19 23:45 UTC.
Time now 2014-Dec-20 00:54 UTC

Location: N 40°56' E 024°24'.
View on Google Maps.

See reports from other nearby stations

  
Tides and Currents Weather Stations Pressure Air Temp Water Temp Dewpoint Dewpoint Depression Visibility Wind Speed Wind Dir Waves Ship Positions
date/time (UTC)wind fromknots sea level pressurealtimeterstation pressurevisibilityair tempwater tempwave heightnotes
2014-Dec-19 23:45 218 0 gusting 2 7.8
2014-Dec-19 23:30 159 0 gusting 6 7.8
2014-Dec-19 23:15 217 7.8
2014-Dec-19 23:00 256 0 gusting 4 7.8
2014-Dec-19 22:45 257 0 gusting 4 7.8
2014-Dec-19 22:30 262 1 gusting 5 7.8
2014-Dec-19 22:15 282 1 gusting 7 7.8
2014-Dec-19 22:00 291 3 gusting 7 7.8
2014-Dec-19 21:45 271 2 gusting 6 7.8
2014-Dec-19 21:30 270 7.8
2014-Dec-19 21:15 270 8.3
2014-Dec-19 21:00 270 8.3
2014-Dec-19 20:45 270 8.3
2014-Dec-19 20:30 270 8.3
2014-Dec-19 20:15 278 8.9
2014-Dec-19 20:00 278 9.4
2014-Dec-19 19:45 278 9.4
2014-Dec-19 19:30 277 9.4
2014-Dec-19 19:15 259 0 gusting 2 8.9
2014-Dec-19 19:00 267 0 gusting 2 8.9
2014-Dec-19 18:45 284 0 gusting 2 8.9
2014-Dec-19 18:30 283 8.9
2014-Dec-19 18:15 268 0 gusting 2 8.9
2014-Dec-19 18:00 275 0 gusting 2 8.9
2014-Dec-19 17:45 279 9.4
2014-Dec-19 17:30 275 9.4
2014-Dec-19 17:00 268 9.4
2014-Dec-19 16:45 275 10.0
2014-Dec-19 16:30 275 10.0
2014-Dec-19 16:15 270 0 gusting 2 10.6
2014-Dec-19 16:00 279 10.6
2014-Dec-19 15:45 259 10.6
2014-Dec-19 15:30 258 11.1
2014-Dec-19 15:15 258 11.1
2014-Dec-19 15:00 240 11.1
2014-Dec-19 14:45 228 11.1
2014-Dec-19 14:30 225 11.7
2014-Dec-19 14:15 220 11.7
2014-Dec-19 14:00 221 12.2
2014-Dec-19 13:45 221 12.8
2014-Dec-19 13:30 219 12.2
2014-Dec-19 13:15 215 0 gusting 2 12.8
2014-Dec-19 13:00 236 0 gusting 6 12.2
2014-Dec-19 12:45 181 1 gusting 2 12.8
2014-Dec-19 12:30 271 1 gusting 5 12.2
2014-Dec-19 12:15 184 0 gusting 4 12.2
2014-Dec-19 12:00 168 1 gusting 4 12.2
2014-Dec-19 11:45 236 1 gusting 6 12.2
2014-Dec-19 11:30 274 1 gusting 4 12.2
2014-Dec-19 11:15 149 1 gusting 4 12.2
2014-Dec-19 11:00 263 1 gusting 4 12.2
2014-Dec-19 10:45 148 1 gusting 5 12.2
2014-Dec-19 10:30 213 0 gusting 4 12.2
2014-Dec-19 10:15 296 0 gusting 4 11.7
2014-Dec-19 10:00 229 0 gusting 2 11.7
2014-Dec-19 09:45 262 0 gusting 4 11.1
2014-Dec-19 09:30 259 0 gusting 2 11.7
2014-Dec-19 09:15 261 1 gusting 5 11.1
2014-Dec-19 09:00 257 0 gusting 2 11.1
2014-Dec-19 08:45 251 11.1
2014-Dec-19 08:30 267 11.1
2014-Dec-19 08:15 269 11.1
2014-Dec-19 08:00 252 10.6
2014-Dec-19 07:45 252 10.0
2014-Dec-19 07:30 259 9.4
2014-Dec-19 07:15 258 0 gusting 1 8.9
2014-Dec-19 07:00 083 8.9
2014-Dec-19 06:45 082 8.3
2014-Dec-19 06:30 082 7.8
2014-Dec-19 06:15 082 7.8
2014-Dec-19 06:00 082 7.8
2014-Dec-19 05:45 082 7.8
2014-Dec-19 05:30 082 7.8
2014-Dec-19 05:15 082 7.8
2014-Dec-19 05:00 082 7.8
2014-Dec-19 04:45 082 7.8
2014-Dec-19 04:30 082 7.8
2014-Dec-19 04:15 082 7.8
2014-Dec-19 04:00 082 7.8
2014-Dec-19 03:45 082 7.8
2014-Dec-19 03:30 082 7.8
2014-Dec-19 03:15 082 7.8
2014-Dec-19 03:00 082 7.8
2014-Dec-19 02:45 082 7.8
2014-Dec-19 02:30 082 8.3
2014-Dec-19 02:15 074 8.3
2014-Dec-19 02:00 074 8.3
2014-Dec-19 01:45 337 8.3
2014-Dec-19 01:30 337 8.3
2014-Dec-19 01:15 337 8.3
2014-Dec-19 01:00 337 8.3
2014-Dec-19 00:45 337 8.3
2014-Dec-19 00:30 337 8.3
2014-Dec-19 00:15 337 8.3
2014-Dec-19 00:00 337 8.3
2014-Dec-18 23:45 337 8.3
2014-Dec-18 23:30 337 8.3
2014-Dec-18 23:15 337 8.3
2014-Dec-18 23:00 337 8.3
2014-Dec-18 22:45 337 8.9
2014-Dec-18 22:30 337 8.9
2014-Dec-18 22:15 337 8.9
2014-Dec-18 22:00 337 8.9
2014-Dec-18 21:45 337 9.4
2014-Dec-18 21:30 337 9.4
2014-Dec-18 21:15 337 9.4
2014-Dec-18 21:00 337 9.4
2014-Dec-18 20:45 337 9.4
2014-Dec-18 20:30 337 9.4
2014-Dec-18 20:15 337 9.4
2014-Dec-18 20:00 337 9.4
2014-Dec-18 19:45 337 9.4
2014-Dec-18 19:30 337 10.0
2014-Dec-18 19:15 337 10.0
2014-Dec-18 19:00 337 10.0
2014-Dec-18 18:45 336 10.0
2014-Dec-18 18:30 336 10.0
2014-Dec-18 18:15 336 10.0
2014-Dec-18 18:00 336 10.0
2014-Dec-18 17:45 336 10.6
2014-Dec-18 17:30 336 10.6
2014-Dec-18 17:15 336 10.6
2014-Dec-18 17:00 336 10.6
2014-Dec-18 16:45 333 10.6
2014-Dec-18 16:30 340 0 gusting 2 10.6
2014-Dec-18 16:15 10.6
2014-Dec-18 16:00 11.1
2014-Dec-18 15:45 11.1
2014-Dec-18 15:30 11.7
2014-Dec-18 15:15 11.7
2014-Dec-18 15:00 12.2
2014-Dec-18 14:45 045 12.2
2014-Dec-18 14:30 088 12.8
2014-Dec-18 14:15 088 13.3
2014-Dec-18 14:00 088 13.3
2014-Dec-18 13:45 088 12.8
2014-Dec-18 13:30 088 12.8
2014-Dec-18 13:15 081 13.3
2014-Dec-18 13:00 246 0 gusting 4 13.3
2014-Dec-18 12:45 256 13.3
2014-Dec-18 12:30 201 0 gusting 4 13.3
2014-Dec-18 12:15 189 2 gusting 4 13.3
2014-Dec-18 12:00 185 1 gusting 2 13.3
2014-Dec-18 11:45 152 1 gusting 4 13.3
2014-Dec-18 11:30 240 0 gusting 2 13.3
2014-Dec-18 11:15 209 0 gusting 2 13.3
2014-Dec-18 11:00 191 0 gusting 4 12.8
2014-Dec-18 10:45 148 0 gusting 4 12.8
2014-Dec-18 10:30 132 12.8
2014-Dec-18 10:15 044 0 gusting 4 12.2
2014-Dec-18 10:00 120 0 gusting 4 12.8
2014-Dec-18 09:45 212 1 gusting 4 12.2
2014-Dec-18 09:30 199 1 gusting 2 12.2
2014-Dec-18 09:15 124 0 gusting 2 12.2
2014-Dec-18 09:00 121 12.8
2014-Dec-18 08:45 141 0 gusting 4 12.2
2014-Dec-18 08:30 053 0 gusting 2 12.2
2014-Dec-18 08:15 100 0 gusting 4 11.7
2014-Dec-18 08:00 263 11.7
2014-Dec-18 07:45 298 11.1
2014-Dec-18 07:30 347 10.6
2014-Dec-18 07:15 354 10.6
2014-Dec-18 07:00 340 10.6
2014-Dec-18 06:45 336 10.0
2014-Dec-18 05:45 296 2 gusting 8 8.9
2014-Dec-18 05:30 296 2 gusting 6 8.3
2014-Dec-18 05:15 321 2 gusting 7 8.9
2014-Dec-18 05:00 308 1 gusting 4 8.9
2014-Dec-18 04:45 078 1 gusting 5 8.9
2014-Dec-18 04:30 058 0 gusting 5 8.9
2014-Dec-18 04:15 073 3 gusting 6 8.9
2014-Dec-18 04:00 300 1 gusting 10 8.9
2014-Dec-18 03:45 300 2 gusting 7 8.9
2014-Dec-18 03:30 351 1 gusting 7 8.9
2014-Dec-18 03:15 081 0 gusting 10 8.9
2014-Dec-18 03:00 269 1 gusting 6 9.4
2014-Dec-18 02:45 187 9.4
2014-Dec-18 02:30 283 9.4
2014-Dec-18 02:15 275 1 gusting 2 10.0
2014-Dec-18 02:00 070 10.0
2014-Dec-18 01:45 070 10.6
2014-Dec-18 01:30 003 0 gusting 5 11.1
2014-Dec-18 01:15 348 0 gusting 6 11.1
2014-Dec-18 01:00 005 3 gusting 7 11.1
2014-Dec-18 00:45 006 2 gusting 6 11.1
2014-Dec-18 00:30 355 1 gusting 5 10.6
2014-Dec-18 00:15 357 10.6
2014-Dec-18 00:00 039 1 gusting 5 10.6